USA 149 (DSP 20)

Last updated on Sun Jun 21 2026 00:03:03 GMT+0000 (Coordinated Universal Time)

1 26356U 00024A 26171.18782242 .00000084 00000+0 00000+0 0 9999 2 26356 13.1731 11.8345 0001966 315.8167 203.0148 1.00276399 32948
UTC large
Height (km)
Speed (km/s)
/
Latitude / Longitude
Inclination (degrees)
Orbital Period (minutes)
Azimuth
Elevation
Range (km)
Doppler Factor

Next 0 passes for location: London (51.5072 / 0.1276)

No passes found over London.
USA 149 (DSP 20)